Retour au catalogue

STARLINK-32509

ActifCommunicationsVLEO
NORAD 62042·PAYLOAD·🇺🇸 United States

Lancé Nov 21, 2024 depuis Cape Canaveral Space Force Station

Loading…

Prochains Passages (prochaines 24 heures)

TLE

FraisSource: CelesTrak SupGP

Époque: Sep 14, 2026, 21:38 UTC

1 62042C 24216L   26257.90187500  .00030381  00000+0  11006-2 0  2572
2 62042  43.0001 267.7868 0001465 262.0224  67.9875 15.27556696    17

Suivez STARLINK-32509 en temps réel avec AllMySat

Download on the App Store